www.pogodaiklimat.ru

Погода и климат >> Архив погоды >> Россия >> Красноярский край >> Сопочная Карга


ПОГОДА в Сопочной Карге

  • Прогноз погоды в Сопочной Карге
  • Монитор погоды в Сопочной Карге

АРХИВ ПОГОДЫ в Сопочной Карге

Время (UTC), дата Ветер
(напр.,м/с)
 
Видим.   Явления Облачность Т
(С)
Тd
(С)
f
(%)
Тe
(С)
Тes
(С)
Комфортность P
(гПа)
Po
(гПа)
Тmin
(С)
Tmax
(С)
R
(мм)
R24
(мм)
S
(см)
03 13.07 СВ 10-12
{14}
20 км {дождь} 10/0
[Ac und]
+6.5 +4.7 88 +1 +1 1010.1 1009.4
06 13.07 С 9-12
{14}
20 км 8/0
[Ac trans]
+8.6 +4.8 77 +4 +4 1011.8 1011.2
12 13.07 С 5 20 км 3/0
[Ci fib]
+11.8 +4.3 60 +10 +11 1015.9 1015.3 +12.8 0.0
15 13.07 С 6 20 км 1/0
[Ci fib]
+8.7 +3.6 70 +5 +5 1018.0 1017.3
18 13.07 СВ 5 20 км 3/0
[Ci fib]
+4.7 +1.9 82 0 0 1019.9 1019.2
21 13.07 СВ 5 20 км 5/3 200 м
[Sc Ci fib]
+2.2 +1.1 92 -3 -3 1021.2 1020.5
00 14.07 В 3 4000 м дымка 10/10 200 м
[Sc]
+2.3 +1.8 96 -2 -2 1021.5 1020.8 +1.6
03 14.07 В 1 20 км 8/6 200 м
[Sc Ci fib]
+5.4 +2.5 82 +4 +7 1022.4 1021.7
06 14.07 ЮВ 2 20 км 8/0
[Ac trans]
+7.6 +3.9 77 +6 +10 1021.2 1020.5
09 14.07 ЮВ 2 20 км 10/0
[Ac und]
+11.1 +6.0 71 +10 +12 1019.9 1019.2
12 14.07 В 3 20 км 10/0
[Ac und]
+12.3 +7.6 73 +11 +12 1018.9 1018.2 +12.3
15 14.07 В 5 20 км 10/0
[Ac und]
+13.0 +9.3 78 +11 +11 1017.4 1016.7
18 14.07 В 7 20 км 10/0
[Ac As]
+12.1 +8.9 81 +9 +9 1015.5 1014.9
21 14.07 В 9-12
{12}
4000 м слаб. дождь 10/0
[Ac As]
+10.9 +9.5 91 +7 +7 1014.2 1013.6
00 15.07 В 8-10
{12}
20 км {дождь} 10/0
[Ac As]
+10.8 +9.2 90 +7 +7 1012.4 1011.8 +10.8 2
03 15.07 ЮВ 7
{10}
4000 м дымка {дождь} 10/0
[Ac As]
+11.7 +10.9 95 +8 +9 1011.2 1010.6
06 15.07 В 7
{10}
20 км {дождь} 10/4 200 м
[Sc Ac und]
+13.0 +11.9 93 +10 +11 1009.8 1009.2
09 15.07 ЮВ 4 20 км 10/0
[Ac As]
+14.1 +12.6 91 +13 +14 1009.2 1008.6
12 15.07 Ю 2 20 км {дождь} 10/0
[Ac und]
+14.1 +12.6 91 +14 +15 1009.4 1008.8 +14.5 0.0
15 15.07 СВ 2 20 км 10/0
[Ac und]
+13.6 +11.9 89 +13 +13 1009.5 1008.9
18 15.07 СВ 2 20 км 10/0
[Ac As]
+13.4 +12.1 92 +13 +13 1008.7 1008.1
21 15.07 СЗ 5 20 км 10/0
[Ac As]
+12.9 +11.6 92 +11 +11 1009.5 1008.9
00 16.07 З 6 20 км 10/0
[Ac und]
+11.6 +10.8 95 +9 +9 1011.3 1010.7 +11.6
03 16.07 З 7 20 км 10/0
[Ac und]
+11.1 +10.5 96 +8 +8 1013.0 1012.4
06 16.07 З 7
{10}
20 км 10/0
[Ac und]
+10.8 +10.0 95 +7 +8 1014.3 1013.7
09 16.07 З 7 20 км 10/0
[Ac und]
+9.8 +9.0 95 +6 +6 1015.2 1015.2
12 16.07 СЗ 8 20 км 6/0
[Ac trans]
+12.4 +10.7 89 +9 +10 1017.2 1016.6 +12.4
15 16.07 СВ 8-11
{12}
20 км 10/0
[Ac und]
+12.2 +10.1 87 +9 +9 1019.2 1018.5
18 16.07 СВ 7
{11}
4000 м слаб. морось 10/8 100 м
[St Ac und]
+10.9 +10.1 95 +7 +7 1021.2 1020.5
21 16.07 СВ 5 20 км {морось} 10/8 300 м
[Sc Ac und]
+11.6 +10.0 90 +9 +9 1022.8 1022.1
00 17.07 СВ 6 20 км 3/0
[Ci fib]
+11.8 +9.0 83 +9 +10 1024.0 1023.3 +10.6
03 17.07 В 8
{11}
20 км 1/0
[Ci fib]
+14.3 +8.8 69 +12 +13 1024.1 1023.5
06 17.07 В 5
{12}
20 км 1/0
[Ci fib]
+15.8 +9.2 65 +15 +19 1023.9 1023.3
09 17.07 В 6 20 км ясно +16.8 +10.4 66 +16 +19 1023.3 1022.7
12 17.07 В 8-10
{10}
20 км 3/0
[Ci fib]
+17.3 +9.9 62 +16 +17 1022.7 1022.1 +17.5
18 17.07 СВ 7 20 км ясно +14.6 +10.2 75 +13 +13 1022.3 1021.7
21 17.07 В 8-10
{11}
20 км ясно +13.3 +6.9 65 +11 +11 1021.6 1021.0
00 18.07 В 8-10
{12}
20 км ясно +14.7 +9.7 72 +13 +13 1021.5 1020.9 +13.1
03 18.07 В 9-13
{15}
20 км ясно +16.5 +10.1 66 +15 +15 1020.8 1020.2
06 18.07 В 10-13
{16}
20 км ясно +17.9 +10.0 60 +17 +17 1020.5 1019.9
09 18.07 В 10-13
{13}
20 км ясно +18.2 +9.9 58 +17 +18 1019.7 1019.1
12 18.07 В 8
{13}
20 км ясно +18.1 +10.9 63 +17 +18 1019.8 1019.2 -18.7
15 18.07 В 8
{10}
20 км ясно +17.0 +11.3 69 +16 +16 1019.4 1018.8
18 18.07 В 7-10
{10}
20 км ясно +15.6 +10.3 71 +14 +14 1019.1 1018.5
21 18.07 В 8-10
{11}
20 км ясно +13.5 +10.6 83 +11 +11 1018.6 1018.0
00 19.07 В 6
{10}
20 км ясно +14.2 +11.2 82 +12 +13 1018.7 1018.1 +13.2
03 19.07 В 3 20 км 1/0
[Ci fib]
+16.3 +12.7 79 +16 +21 1018.3 1017.7
06 19.07 Ю 5 20 км 4/0
[Ci fib]
+19.7 +12.8 64 +21 +25 комфорт 1017.9 1017.3
09 19.07 В 3 20 км 3/0
[Ci fib]
+19.4 +14.0 71 +21 +27 комфорт 1017.6 1017.0
12 19.07 Ю 4 20 км 3/0
[Ci fib]
+19.7 +13.8 69 +22 +23 комфорт 1017.3 1016.7 +21.0
15 19.07 ЮВ 3 20 км ясно +19.7 +13.2 66 +22 +22 комфорт 1017.1 1016.5
18 19.07 В 3 20 км ясно +16.6 +13.8 84 +16 +16 1017.4 1016.8
21 19.07 В 5 20 км ясно +16.1 +11.7 75 +15 +15 1017.2 1016.6

 

Местоположение метеостанции Сопочная Карга (Красноярский край, Россия): широта 71.87 долгота 82.70 высота над уровнем моря 5 м.

В архиве по умолчанию представлена погода в Сопочной Карге за последнюю неделю. Архивные данные за месяц целиком и за предыдущие месяцы, начиная с января 2011 года, Вы можете получить, выбрав интересующий диапазон дат из раскрывающегося списка и нажав кнопку "Ввод!".


*Определитесь, кто Вы:
робот инопланетянин человек

Внимание! Время в таблицах - всемирное. Для получения местного времени необходимо прибавить поправку, которая равна 7 ч.

Смотрите также архив погоды в соседних городах и на ближайших метеорологических станциях:

Погода в Гыде (Ямало-Ненецкий АО, Россия) (186 км)
Погода на Острове Диксон (Красноярский край, Россия) (199 км)
Погода в Карауле (Красноярский край, Россия) (200 км)
Погода в Крестах Таймырских (Красноярский край, Россия) (279 км)
Погода в Норильске (Красноярский край, Россия) (350 км)
Погода в Антипаюте (Ямало-Ненецкий АО, Россия) (379 км)
Погода в Потапово (Красноярский край, Россия) (380 км)
Погода в Тамбее (Ямало-Ненецкий АО, Россия) (382 км)
Погода в Сеяхе (Ямало-Ненецкий АО, Россия) (413 км)
Погода в Волочанке (Красноярский край, Россия) (429 км)

Пояснения к столбцам:

Ветер - указаны скорость ветра в м/с - средняя за 10 мин, порывы в срок и между сроками (в фигурных скобках) и направление, откуда дует ветер: С - северный, СВ - северо-восточный, В - восточный, ЮВ - юго-восточный, Ю - южный, ЮЗ - юго-западный, З - западный, СЗ - северо-западный.
Видимость - горизонтальная дальность видимости в метрах или километрах. При видимости от 1 до 10 км при отсутствии осадков обычно наблюдается дымка, при ухудшении видимости до 1 км и менее - туман. В сухую погоду видимость может ухудшаться дымом, пылью или мглою.
Явления - указаны атмосферные явления, наблюдавшиеся в срок или в последний час перед сроком; фигурными скобками обозначены явления, наблюдавшиеся между сроками (за 1-3 часа до срока); квадратными скобками обозначены град или гололедные отложения с указанием их диаметра в мм.
Облачность - указаны через наклонную черту общая и нижняя облачность в баллах и высота нижней границы облаков в метрах; квадратными скобками обозначены формы облаков: Ci - перистые, Cs - перисто-слоистые, Cc - перисто-кучевые, Ac - высококучевые, As - высокослоистые, Sc - слоисто-кучевые, Ns - слоисто-дождевые, Cu - кучевые, Cb - кучево-дождевые. Подробнее классификацию облаков см. в Атласе облаков (PDF).
T - Температура воздуха - температура, измеренная на высоте 2 м над землей.
Td - Температура точки росы - температура, при понижении до которой содержащийся в воздухе водяной пар достигнет насыщения.
f - Относительная влажность воздуха - влажноcть воздуха, измеренная на высоте 2 м над землей.
Te - Эффективная температура - температура, которую ощущает одетый по сезону человек в тени. Характеристика душности погоды. При расчете учитывается влияние влажности воздуха и скорости ветра на теплоощущения человека.
Tes - Эффективная температура на солнце - температура, которую ощущает человек, с поправкой на солнечный нагрев. Характеристика знойности погоды. Зависит от высоты солнца над горизонтом, облачности и скорости ветра. Ночью, в пасмурную погоду, а также при ветре 12 м/с и более поправка равна нулю.
P - Атмосферное давление - приведенное к уровню моря атмосферное давление.
Po - Атмосферное давление - измеренное на уровне метеостанции атмосферное давление.
Tmin - Минимальная температура - минимум температуры воздуха на высоте 2 м над землей.
Tmax - Максимальная температура - максимум температуры воздуха на высоте 2 м над землей.
R - Количество осадков - Количество выпавших осадков за период времени, мм. При наведении курсора мыши на число - период времени, за который выпало указанное количество осадков.
R24 - Количество осадков - Количество выпавших осадков за 24 часа, мм.
S - Снежный покров - Высота снежного покрова, см. При наведении курсора мыши на число - состояние снежного покрова и степень покрытия местности в баллах.